User: anonymous   Login
Location: El Centro
(32.7920°N, 115.5620°W)
Time: 22:18:18
(UTC-07:00)
Language:

Hamsat - Orbit

View from above orbital plane
View from above orbital plane
View from above satellite
View from above satellite

Ground track
Ground track

The orbit data is extracted from the following two-line orbital elements,

1 28650U 05017B   18109.90121510  .00000226  00000-0  29821-4 0  9998
2 28650  97.6937  79.6240 0023020 191.9489 168.1186 14.88905891701800
Epoch (UTC): 19 April 2018 21:37:44
Eccentricity: 0.0023020
inclination: 97.6937°
perigee height: 585 km
apogee height: 617 km
right ascension of ascending node: 79.6240°
argument of perigee: 191.9489°
revolutions per day: 14.88905891
mean anomaly at epoch: 168.1186°
orbit number at epoch: 70180

The dashed part of the orbit path shows where the satellite is in the earth's shadow,  

DLR